Swansboro, NC

3:28 AM EDT on September 30, 2016 (GMT -0400)
Bogue McAlf

Weather History for KNJM - January, 2012

Change the Weather History Date:

Sunday, January 22, 2012

  Actual Average (KNKT) Record (KNKT)
Temperature  
Mean Temperature 42 °F -  
Max Temperature 45 °F 51 °F 75 °F (1999)
Min Temperature 39 °F 32 °F 19 °F (2000)
Degree Days  
Heating Degree Days 23    
Moisture  
Dew Point 39 °F    
Average Humidity 89    
Maximum Humidity 93    
Minimum Humidity 81    
Precipitation  
Precipitation 0.00 in - - ()
Sea Level Pressure  
Sea Level Pressure 30.27 in    
Wind  
Wind Speed 10 mph (North)    
Max Wind Speed 13 mph    
Max Gust Speed 24 mph    
Visibility 9 miles    
Events      
Averages and records for this station are not official NWS values.
T = Trace of Precipitation, MM = Missing Value Source: NWS Daily Summary

Daily Weather History Graph

Daily Weather History Graph

Search for Another Location

Airport or City:

Trip Planner

Search our weather history database for the weather conditions in past years. The results will help you decide how hot, cold, wet, or windy it might be!

Date:

Astronomy

Jan. 22, 2012 Rise Set
Actual Time 7:12 AM EST 5:26 PM EST
Civil Twilight 6:45 AM EST 5:53 PM EST
Nautical Twilight 6:14 AM EST 6:24 PM EST
Astronomical Twilight 5:44 AM EST 6:54 PM EST
Moon 6:27 AM EST (1/22) 5:05 PM EST (1/22)
Length of Visible Light 11h 08m
Length of Day
10h 14m
Waning Crescent, 0% of the Moon is Illuminated
Jan 22
Waning Crescent
Jan 23
New
Jan 30
First Quarter
Feb 7
Full
Feb 14
Last Quarter

Hourly Weather History & Observations

Time (EST) Temp. Windchill Dew Point Humidity Pressure Visibility Wind Dir Wind Speed Gust Speed Precip Events Conditions
12:57 AM 45.0 °F 38.9 °F 42.1 °F 90% 30.16 in - North 12.7 mph 24.2 mph 0.00 in   Overcast
1:57 AM 42.1 °F 35.7 °F 39.9 °F 92% 30.18 in 10.0 mi NNE 11.5 mph 19.6 mph N/A   Overcast
2:57 AM 41.0 °F 34.7 °F 37.9 °F 89% 30.20 in 10.0 mi NNE 10.4 mph 18.4 mph N/A   Overcast
3:18 AM 41.0 °F 35.2 °F 37.4 °F 87% 30.18 in 10.0 mi NNE 9.2 mph 19.6 mph N/A   Overcast
3:57 AM 41.0 °F 34.7 °F 37.9 °F 89% 30.19 in 10.0 mi NNE 10.4 mph - N/A   Overcast
4:17 AM 41.0 °F 33.9 °F 37.4 °F 87% 30.18 in 10.0 mi NNE 12.7 mph 20.7 mph N/A   Overcast
4:57 AM 39.9 °F 33.9 °F 37.9 °F 93% 30.20 in 10.0 mi North 9.2 mph - N/A   Overcast
5:57 AM 39.9 °F 33.9 °F 37.9 °F 93% 30.23 in 4.0 mi North 9.2 mph 19.6 mph N/A   Overcast
6:57 AM 39.0 °F 32.3 °F 37.0 °F 93% 30.26 in 7.0 mi North 10.4 mph - N/A   Overcast
7:57 AM 39.0 °F 32.8 °F 37.0 °F 93% 30.27 in 10.0 mi North 9.2 mph - N/A   Overcast
8:57 AM 39.9 °F 33.4 °F 37.0 °F 89% 30.31 in 10.0 mi NNE 10.4 mph 16.1 mph N/A   Overcast
9:57 AM 41.0 °F 35.2 °F 37.9 °F 89% 30.33 in 10.0 mi North 9.2 mph - N/A   Overcast
10:57 AM 41.0 °F 35.2 °F 37.9 °F 89% 30.34 in 10.0 mi North 9.2 mph - N/A   Overcast
11:57 AM 42.1 °F 37.1 °F 39.0 °F 89% 30.32 in 10.0 mi North 8.1 mph - N/A   Overcast
12:57 PM 44.1 °F 40.1 °F 39.9 °F 85% 30.31 in 10.0 mi Variable 6.9 mph - N/A   Overcast
1:57 PM 43.0 °F 37.7 °F 39.0 °F 86% 30.30 in 10.0 mi North 9.2 mph 18.4 mph N/A   Overcast
2:57 PM 42.8 °F 36.2 °F 39.2 °F 87% 30.28 in 8.0 mi North 12.7 mph - N/A   Overcast
3:57 PM 43.0 °F 38.2 °F 39.9 °F 89% 30.30 in 10.0 mi North 8.1 mph 16.1 mph N/A   Overcast
4:48 PM 42.8 °F 36.2 °F 39.2 °F 87% 30.29 in 9.0 mi North 12.7 mph 19.6 mph N/A   Overcast
4:57 PM 43.0 °F 36.8 °F 39.9 °F 89% 30.30 in 9.0 mi North 11.5 mph 21.9 mph N/A   Overcast
5:57 PM 43.0 °F 36.8 °F 39.9 °F 89% 30.30 in 9.0 mi North 11.5 mph 20.7 mph N/A   Overcast
6:57 PM 43.0 °F 37.7 °F 41.0 °F 93% 30.31 in 9.0 mi North 9.2 mph - N/A   Overcast
7:14 PM 44.6 °F 40.2 °F 41.0 °F 87% 30.31 in 9.0 mi North 8.1 mph - N/A   Overcast
7:39 PM 44.6 °F 40.7 °F 39.2 °F 81% 30.30 in 9.0 mi North 6.9 mph - N/A   Overcast
7:57 PM 43.0 °F 39.5 °F 41.0 °F 93% 30.32 in 9.0 mi Variable 5.8 mph - N/A   Overcast
8:57 PM 44.1 °F 40.8 °F 41.0 °F 89% 30.33 in 8.0 mi NW 5.8 mph - N/A   Overcast
9:57 PM 44.1 °F 41.5 °F 41.0 °F 89% 30.32 in 8.0 mi North 4.6 mph - N/A   Overcast
10:57 PM 43.0 °F 41.3 °F 41.0 °F 93% 30.32 in 7.0 mi NNW 3.5 mph - N/A   Overcast
11:18 PM 42.8 °F 40.1 °F 41.0 °F 93% 30.29 in 7.0 mi North 4.6 mph - N/A   Overcast
11:57 PM 43.0 °F - 41.0 °F 93% 30.29 in 7.0 mi Calm Calm - N/A   Overcast